NOAA 16 DEB

Satellite information

Favourite Embed

Satellite Type and Status

DEBRISIN ORBIT

Key statistics

Satellite NOAA 16 DEB at a glance.

Uptime

9119

Days in orbit

Revolutions

≈ 14.2

Per day

Orbit

SSO

Sun Synchronous Orbit

Inclination

98.7

Latest

Satellite identification and parameters

Extended collection of information and parameters for NOAA 16 DEB.

Object identification

Identified? True

Debris? True

Object name: NOAA 16 DEB

International designator: 2000-055GB

Object number (NORAD): 41275

Object ID (CCSDS): 41275

Country: UNITED STATES OF AMERICA (US)

Current information (Y/N): Y

RCS size: SMALL

Orbital parameters

Period: 101.072 minutes

Inclination: 98.6912 deg

SMA: 7187.549 km

Apoapsis: 822.834 km

Periapsis: 795.995 km

RAAN: 302.5462 deg

Eccentricy: 0.00186706

Argument of periapsis: 259.4693 deg

Mean anomaly: 100.4383 deg

Mean motion: 14.24726482 rev/day

Mean motion (dot): 0.00003945 rev/day2

B* drag term: 0.0017094108 1/REarth

Two-line elements (TLE)

Creation date: Sept. 8, 2025, 3:16 a.m.

Reference frame: TEME

Reference center: EARTH

Epoch: Sept. 7, 2025, 8:39 p.m. UTC

TLE line 0: 0 NOAA 16 DEB

TLE line 1: 1 41275U 00055GB 25250.86087197 .00003945 00000-0 17094-2 0 9993

TLE line 2: 2 41275 98.6912 302.5462 0018671 259.4693 100.4383 14.24726482500979

Live tracking on map

Real-time ground track for satellite NOAA 16 DEB.

In-orbit conjunctions

A list of the most updated potential collisions computed for object NOAA 16 DEB.

Target Orbit TCA Probability of collision Miss distance Type
SL-12 R/B(AUX MOTOR) LEO 2025-07-03 22:50:28 0.0001315619 407.0 (m) ROCKET BODY
SS 3 LEO 2025-03-12 18:39:11 0.0001585158 551.0 (m) PAYLOAD

Associated space launch

The NOAA K, L and M POES satellites begin the fifth generation of improved environmental monitoring in support of NOAA missions. The instrument payload has significant improvements and additions/deletions. The instrument changes have effected the spacecraft subsystems and data formats.

NOAA 16 DEB was lifted into orbit during the mission ‘Titan II SLV | NOAA 16’, on board a Titan II SLV space rocket.

The launch took place on Sept. 21, 2000, 10:22 a.m. from Space Launch Complex 4W.

For more information about the launch, click the button.

Launch to space Titan II SLV | NOAA 16
Titan II SLV | NOAA 16

Agency: N/A

Status: Launch Successful

Launch date: Sept. 21, 2000, 10:22 a.m. UTC

Rocket: Titan II SLV

Launch pad: Space Launch Complex 4W

Location: Vandenberg SFB, CA, USA

...

Latest news about this satellite

There are no fresh news available about this satellite. Check back as we update our databases every day.


Newsletter sign-up

Weekly statistics, charts and insights to help you stay on top of the space industry.